Main page
METAR-TAF:

METAR-TAF

Airports :

Troll C, Norway

Oil platform

latitude: 60-53-09N, longitude: 3-36-35E, elevation: 20 m

Current weather observation

The report was made 33 minutes ago, at 13:20 UTC
Wind 21 kt from the South/Southwest
Temperature 13°C
Humidity 67%
Pressure 997 hPa
Visibility 10 km or more

METAR: ENQC 241320Z AUTO 21021KT 9999NDV FEW022/// 13/07 Q0997 W///S5

Time: 15:53 (13:53 UTC)


TAF: missing

Weather observations and forecasts of more than 4000 airports (METAR and TAF reports).

The available stations are represented by yellow and red dots on the map.

Hover mouse over dot to see the name of the station.

Then click to see weather observations and forecasts.

To change the map : click on the green buttons with a black cross to zoom in, on the green button with a dash to zoom out, or on the green arrows for adjacent maps.


METAR-TAF: